This is the latest recevied weather packets stored in our database for station/object IZ1UQG-N2. If no packets are shown the sender has not sent any weather packets the latest 10 day(s).
| Time | Temp. | Humidity | Pressure | Rain* | Wind** | Luminosity | Snow |
|---|---|---|---|---|---|---|---|
| 1777744024 | 20° C | 50% | 1017.8 hPa | 0 mm | - | 33 W/m² | - |
| 1777744021 | 20° C | 51% | 1017.8 hPa | 0 mm | - | 35 W/m² | - |
| 1777743963 | 20° C | 51% | 1017.8 hPa | 0 mm | - | 35 W/m² | - |
| 1777743903 | 20° C | 50% | 1017.8 hPa | 0 mm | - | 35 W/m² | - |
| 1777743843 | 20° C | 51% | 1017.8 hPa | 0 mm | - | 35 W/m² | - |
| 1777743841 | 20.56° C | 50% | 1017.7 hPa | 0 mm | - | 35 W/m² | - |
| 1777743784 | 20.56° C | 50% | 1017.7 hPa | 0 mm | - | 35 W/m² | - |
| 1777743724 | 20.56° C | 51% | 1017.9 hPa | 0 mm | - | 37 W/m² | - |
| 1777743676 | 20.56° C | 51% | 1017.8 hPa | 0 mm | - | 37 W/m² | - |
| 1777743666 | 20.56° C | 51% | 1017.9 hPa | 0 mm | - | 37 W/m² | - |
| 1777743662 | 20.56° C | 51% | 1017.9 hPa | 0 mm | - | 37 W/m² | - |
| 1777743616 | 20.56° C | 51% | 1017.8 hPa | 0 mm | - | 37 W/m² | - |
| 1777743604 | 20.56° C | 51% | 1017.9 hPa | 0 mm | - | 37 W/m² | - |
| 1777743544 | 20.56° C | 51% | 1017.8 hPa | 0 mm | - | 37 W/m² | - |
| 1777743483 | 20.56° C | 51% | 1017.8 hPa | 0 mm | - | 37 W/m² | - |
| 1777743481 | 20.56° C | 51% | 1017.8 hPa | 0 mm | - | 37 W/m² | - |
| 1777743436 | 20.56° C | 49% | 1017.7 hPa | 0 mm | - | 37 W/m² | - |
| 1777743425 | 20.56° C | 51% | 1017.8 hPa | 0 mm | - | 37 W/m² | - |
| 1777743365 | 20.56° C | 51% | 1017.8 hPa | 0 mm | - | 37 W/m² | - |
| 1777743304 | 20.56° C | 50% | 1017.7 hPa | 0 mm | - | 37 W/m² | - |
| 1777743301 | 20.56° C | 50% | 1017.7 hPa | 0 mm | - | 37 W/m² | - |
| 1777743243 | 20.56° C | 50% | 1017.7 hPa | 0 mm | - | 37 W/m² | - |
| 1777743195 | 21.11° C | 47% | 1017.7 hPa | 0 mm | - | 39 W/m² | - |
| 1777743184 | 20.56° C | 49% | 1017.7 hPa | 0 mm | - | 37 W/m² | - |
| 1777743124 | 21.11° C | 49% | 1017.6 hPa | 0 mm | - | 39 W/m² | - |
* Rain latest hour (hover to see other rain measurements)
** Current wind speed in m/s (hover to see current wind gust speed)